Location: Newark
(45.8667°N, 9.7333°E)
Time: 22:00:14
(UTC+00:00)

A-11 Canister half - Pass Details

Date: 28 January 2020
Orbit: 1517 x 1683 km, 47.2° (Epoch: 19 February)

Event Time Altitude Azimuth Distance (km) Brightness Sun altitude
Rises 01:42:17 0° 277° (W) 4,701 - -51.8°
Reaches altitude 10° 01:45:21 10° 278° (W) 3,704 - -51.4°
Maximum altitude 01:54:42 85° 7° (N) 1,527 - -50.0°
Exits shadow 01:59:57 30° 95° (E) 2,442 10.2 -49.2°
Drops below altitude 10° 02:04:00 10° 98° (E) 3,687 11.4 -48.6°
Sets 02:07:03 0° 99° (E) 4,679 12.0 -48.1°
